Weather History for Campo, CA

Change the Weather History Date:

Monday, June 18, 2012

  Actual Average Record
Temperature  
Mean Temperature 71 °F 67 °F  
Max Temperature 92 °F 88 °F 101 °F (1989)
Min Temperature 49 °F 45 °F 31 °F (1979)
Degree Days  
Heating Degree Days 0 1  
Month to date heating degree days 45 43  
Since 1 June heating degree days 45 43  
Since 1 July heating degree days 3334 2970  
Cooling Degree Days 6 3  
Month to date cooling degree days 20 40  
Year to date cooling degree days 43 70  
Since 1 June cooling degree days 20 40  
Growing Degree Days 20 (Base 50)    
Moisture  
Dew Point 37 °F    
Average Humidity 35    
Maximum Humidity 59    
Minimum Humidity 10    
Precipitation  
Precipitation 0.00 in 0.01 in 0.12 in (1975)
Month to date precipitation 0.00 0.07  
Year to date precipitation 6.05 10.11  
Since 1 July precipitation 11.29 15.69  
Snow  
Snow 0.00 in - - ()
Month to date snowfall 0.0  
Year to date snowfall 0.0  
Since 1 July snowfall 0.0  
Snow Depth 0.00 in    
Sea Level Pressure  
Sea Level Pressure 29.81 in    
Wind  
Wind Speed 9 mph (West)    
Max Wind Speed 20 mph    
Max Gust Speed 24 mph    
T = Trace of Precipitation, MM = Missing Value Source: NWS Daily Summary

Daily Weather History Graph

Daily Weather History Graph

Search for Another Location

Airport:

Trip Planner

Search our weather history database for the weather conditions in past years. The results will help you decide how hot, cold, wet, or windy it might be!

Date:

Astronomy

Jun. 18, 2012 Rise Set
Actual Time 5:38 AM PDT 7:56 PM PDT
Civil Twilight 5:09 AM PDT 8:24 PM PDT
Nautical Twilight 4:34 AM PDT 8:59 PM PDT
Astronomical Twilight 3:56 AM PDT 9:37 PM PDT
Moon 4:54 AM PDT (6/18) 7:20 PM PDT (6/18)
Length of Visible Light 15h 15m
Length of Day
14h 17m
Waning Crescent, 1% of the Moon is Illuminated
Jun 18
Waning Crescent
Jun 19
New
Jun 26
First Quarter
Jul 3
Full
Jul 10
Last Quarter

Hourly Weather History & Observations

Time (PDT) Temp. Dew Point Humidity Pressure Visibility Wind Dir Wind Speed Gust Speed Precip Events Conditions
12:52 AM 57.0 °F 42.1 °F 57% 29.83 in - ENE 6.9 mph - N/A   Unknown
1:52 AM 55.9 °F 41.0 °F 57% 29.82 in - NE 5.8 mph - N/A   Unknown
2:52 AM 54.0 °F 37.9 °F 55% 29.81 in - NE 5.8 mph - N/A   Unknown
3:52 AM 50.0 °F 36.0 °F 59% 29.82 in - NE 5.8 mph - N/A   Unknown
4:52 AM 52.0 °F 34.0 °F 50% 29.82 in - NE 5.8 mph - N/A   Unknown
5:52 AM 53.1 °F 32.0 °F 45% 29.83 in - NE 5.8 mph - N/A   Unknown
6:52 AM 60.1 °F 35.1 °F 39% 29.83 in - Calm Calm - N/A   Unknown
7:52 AM 71.1 °F 35.1 °F 27% 29.83 in - Calm Calm - N/A   Unknown
8:52 AM 80.1 °F 33.1 °F 18% 29.83 in - SSW 4.6 mph - N/A   Unknown
9:52 AM 84.9 °F 28.9 °F 13% 29.82 in - SSW 13.8 mph - N/A   Unknown
10:52 AM 86.0 °F 27.0 °F 12% 29.83 in - SSW 12.7 mph - N/A   Unknown
11:52 AM 87.1 °F 35.1 °F 16% 29.83 in - SSW 19.6 mph - N/A   Unknown
12:52 PM 89.1 °F 37.9 °F 16% 29.82 in - WSW 10.4 mph 17.3 mph N/A   Unknown
1:52 PM 91.9 °F 28.0 °F 10% 29.81 in - West 11.5 mph - N/A   Unknown
2:52 PM 91.0 °F 30.0 °F 11% 29.79 in - West 13.8 mph 20.7 mph N/A   Unknown
3:52 PM 90.0 °F 32.0 °F 13% 29.79 in - West 16.1 mph 21.9 mph N/A   Unknown
4:52 PM 88.0 °F 33.1 °F 14% 29.79 in - Variable 6.9 mph 16.1 mph N/A   Unknown
5:52 PM 86.0 °F 36.0 °F 17% 29.78 in - SW 11.5 mph - N/A   Unknown
6:52 PM 81.0 °F 42.1 °F 25% 29.78 in - SW 13.8 mph - N/A   Unknown
7:52 PM 72.0 °F 48.9 °F 44% 29.79 in - SW 6.9 mph - N/A   Unknown
8:52 PM 66.0 °F 48.0 °F 52% 29.79 in - Calm Calm - N/A   Unknown
9:52 PM 57.9 °F 41.0 °F 53% 29.82 in - NNE 4.6 mph - N/A   Unknown
10:52 PM 57.0 °F 42.1 °F 57% 29.82 in - NE 3.5 mph - N/A   Unknown
11:52 PM 55.0 °F 41.0 °F 59% 29.82 in - NE 5.8 mph - N/A   Unknown